sat.trackr.live / text

‹ back to catalog

STARLINK-2405

NORAD 47919 · 2021-021BM

PAYLOAD ACTIVE UNKNOWN

§ Identity

Operator
Country
US
Launch date
2021-03-14
Launch site
AFETR
Launch vehicle
Mass (kg)
RCS (m²)

Purposes: comms

External: N2YO · Heavens-Above · Gunter

§ Orbital elements

Epoch: 2026-09-20T02:12:49.904064Z

Period
94.01 min
Inclination
53.1601°
Eccentricity
0.0001393
Mean motion
15.31723065 rev/d
Perigee alt
469.7 km
Apogee alt
471.6 km
Semi-major
6,848.8 km
B*
4.4108e-5
RAAN
96.2461°
Arg perigee
94.6874°
Mean anomaly
265.4287°
Rev number
30,583

§ Raw data

STARLINK-24051 47919U 21021BM  26263.09224426  .00001005  00000+0  44108-4 0  99902 47919  53.1601  96.2461 0001393  94.6874 265.4287 15.31723065305836

JSON: /api/v1/satellites/47919 · /tle

For live sub-satellite position, see the globe view (requires WebGL).

§ Visibility from observer

Set your observer location to see the next 7 days of passes ≥ 10°. The values pass through the URL so the page stays shareable.

No JS? Fill the form by hand. The geolocation button needs JavaScript.